owner,sensor,date,latitude,longitude,air_pressure(mBar),qcFlag 
TABS,ioos:station:wmo:42045:1,2009-12-01T00:00:00Z,26.2168,-96.4998,1014.23,11111222 
TABS,ioos:station:wmo:42045:1,2009-12-01T00:30:00Z,26.2168,-96.4998,1014.08,11111222 
TABS,ioos:station:wmo:42045:1,2009-12-01T01:00:00Z,26.2168,-96.4998,1013.99,11111222 
TABS,ioos:station:wmo:42045:1,2009-12-01T01:30:00Z,26.2168,-96.4998,1014.61,11111222 
TABS,ioos:station:wmo:42045:1,2009-12-01T02:00:00Z,26.2168,-96.4998,1014.24,11111222 
TABS,ioos:station:wmo:42045:1,2009-12-01T02:30:00Z,26.2168,-96.4998,1014.26,11111222 
TABS,ioos:station:wmo:42045:1,2009-12-01T03:00:00Z,26.2168,-96.4998,1014.35,11111222 
TABS,ioos:station:wmo:42045:1,2009-12-01T03:30:00Z,26.2168,-96.4998,1013.79,11111222 
TABS,ioos:station:wmo:42045:1,2009-12-01T04:00:00Z,26.2168,-96.4998,1013.86,11111222 
TABS,ioos:station:wmo:42045:1,2009-12-01T04:30:00Z,26.2168,-96.4998,1013.62,11111222 
TABS,ioos:station:wmo:42045:1,2009-12-01T05:00:00Z,26.2168,-96.4998,1013.15,11111222 
TABS,ioos:station:wmo:42045:1,2009-12-01T05:30:00Z,26.2168,-96.4998,1012.49,11111222 
TABS,ioos:station:wmo:42045:1,2009-12-01T06:00:00Z,26.2168,-96.4998,1011.84,11111222 
TABS,ioos:station:wmo:42045:1,2009-12-01T06:30:00Z,26.2168,-96.4998,1011.82,11111222 
TABS,ioos:station:wmo:42045:1,2009-12-01T07:00:00Z,26.2168,-96.4998,1011.5,11111222 
TABS,ioos:station:wmo:42045:1,2009-12-01T07:30:00Z,26.2168,-96.4998,1010.99,11111222 
TABS,ioos:station:wmo:42045:1,2009-12-01T08:00:00Z,26.2168,-96.4998,1010.73,11111222 
TABS,ioos:station:wmo:42045:1,2009-12-01T08:30:00Z,26.2168,-96.4998,1010.6,11111222 
TABS,ioos:station:wmo:42045:1,2009-12-01T09:00:00Z,26.2168,-96.4998,1009.89,11111222 
TABS,ioos:station:wmo:42045:1,2009-12-01T09:30:00Z,26.2168,-96.4998,1009.92,11111222 
TABS,ioos:station:wmo:42045:1,2009-12-01T10:00:00Z,26.2168,-96.4998,1008.76,11111222 
TABS,ioos:station:wmo:42045:1,2009-12-01T10:30:00Z,26.2168,-96.4998,1008.62,11111222 
TABS,ioos:station:wmo:42045:1,2009-12-01T11:00:00Z,26.2168,-96.4998,1008.5,11111222 
TABS,ioos:station:wmo:42045:1,2009-12-01T11:30:00Z,26.2168,-96.4998,1009.01,11111222 
TABS,ioos:station:wmo:42045:1,2009-12-01T12:00:00Z,26.2168,-96.4998,1008.36,11111222 
TABS,ioos:station:wmo:42045:1,2009-12-01T12:30:00Z,26.2168,-96.4998,1007.6,11111222 
TABS,ioos:station:wmo:42045:1,2009-12-01T13:00:00Z,26.2168,-96.4998,1008.17,11111222 
TABS,ioos:station:wmo:42045:1,2009-12-01T13:30:00Z,26.2168,-96.4998,1009.33,11111222 
TABS,ioos:station:wmo:42045:1,2009-12-01T14:00:00Z,26.2168,-96.4998,1008.57,11111222 
TABS,ioos:station:wmo:42045:1,2009-12-01T14:30:00Z,26.2168,-96.4998,1008.07,11111222 
TABS,ioos:station:wmo:42045:1,2009-12-01T15:00:00Z,26.2168,-96.4998,1009.39,11111222 
TABS,ioos:station:wmo:42045:1,2009-12-01T15:30:00Z,26.2168,-96.4998,1009.48,11111222 
TABS,ioos:station:wmo:42045:1,2009-12-01T16:00:00Z,26.2168,-96.4998,1008.27,11111222 
TABS,ioos:station:wmo:42045:1,2009-12-01T16:30:00Z,26.2168,-96.4998,1007.84,11111222 
TABS,ioos:station:wmo:42045:1,2009-12-01T17:00:00Z,26.2168,-96.4998,1006.24,11111222 
TABS,ioos:station:wmo:42045:1,2009-12-01T17:30:00Z,26.2168,-96.4998,1005.17,11111222 
TABS,ioos:station:wmo:42045:1,2009-12-01T18:00:00Z,26.2168,-96.4998,1004.91,11111222 
TABS,ioos:station:wmo:42045:1,2009-12-01T18:30:00Z,26.2168,-96.4998,1004.02,11111222 
TABS,ioos:station:wmo:42045:1,2009-12-01T19:00:00Z,26.2168,-96.4998,1003.52,11111222 
TABS,ioos:station:wmo:42045:1,2009-12-01T19:30:00Z,26.2168,-96.4998,1002.99,11111222 
TABS,ioos:station:wmo:42045:1,2009-12-01T20:00:00Z,26.2168,-96.4998,1002.37,11111222 
TABS,ioos:station:wmo:42045:1,2009-12-01T20:30:00Z,26.2168,-96.4998,1002.68,11111222 
TABS,ioos:station:wmo:42045:1,2009-12-01T21:00:00Z,26.2168,-96.4998,1002.07,11111222 
TABS,ioos:station:wmo:42045:1,2009-12-01T21:30:00Z,26.2168,-96.4998,1002.96,11111222 
TABS,ioos:station:wmo:42045:1,2009-12-01T22:00:00Z,26.2168,-96.4998,1002.79,11111222 
TABS,ioos:station:wmo:42045:1,2009-12-01T22:30:00Z,26.2168,-96.4998,1003.08,11111222 
TABS,ioos:station:wmo:42045:1,2009-12-01T23:00:00Z,26.2168,-96.4998,1003.35,11111222 
TABS,ioos:station:wmo:42045:1,2009-12-01T23:30:00Z,26.2168,-96.4998,1003.21,11111222 
TABS,ioos:station:wmo:42045:1,2009-12-02T00:00:00Z,26.2168,-96.4998,1004.14,11111222 
TABS,ioos:station:wmo:42045:1,2009-12-02T00:30:00Z,26.2168,-96.4998,1004.67,11111222 
TABS,ioos:station:wmo:42045:1,2009-12-02T01:00:00Z,26.2168,-96.4998,1004.82,11111222 
TABS,ioos:station:wmo:42045:1,2009-12-02T01:30:00Z,26.2168,-96.4998,1005.05,11111222 
TABS,ioos:station:wmo:42045:1,2009-12-02T02:00:00Z,26.2168,-96.4998,1005.05,11111222 
TABS,ioos:station:wmo:42045:1,2009-12-02T02:30:00Z,26.2168,-96.4998,1005.82,11111222 
TABS,ioos:station:wmo:42045:1,2009-12-02T03:00:00Z,26.2168,-96.4998,1006.43,11111222 
TABS,ioos:station:wmo:42045:1,2009-12-02T03:30:00Z,26.2168,-96.4998,1006.08,11111222 
TABS,ioos:station:wmo:42045:1,2009-12-02T04:00:00Z,26.2168,-96.4998,1006.7,11111222 
TABS,ioos:station:wmo:42045:1,2009-12-02T04:30:00Z,26.2168,-96.4998,1006.88,11111222 
TABS,ioos:station:wmo:42045:1,2009-12-02T05:00:00Z,26.2168,-96.4998,1007.22,11111222 
TABS,ioos:station:wmo:42045:1,2009-12-02T05:30:00Z,26.2168,-96.4998,1007.03,11111222 
TABS,ioos:station:wmo:42045:1,2009-12-02T06:00:00Z,26.2168,-96.4998,1006.84,11111222 
TABS,ioos:station:wmo:42045:1,2009-12-02T06:30:00Z,26.2168,-96.4998,1006.53,11111222 
TABS,ioos:station:wmo:42045:1,2009-12-02T07:00:00Z,26.2168,-96.4998,1006.3,11111222 
TABS,ioos:station:wmo:42045:1,2009-12-02T07:30:00Z,26.2168,-96.4998,1006.21,11111222 
TABS,ioos:station:wmo:42045:1,2009-12-02T08:00:00Z,26.2168,-96.4998,1006.24,11111222 
TABS,ioos:station:wmo:42045:1,2009-12-02T08:30:00Z,26.2168,-96.4998,1006.4,11111222 
TABS,ioos:station:wmo:42045:1,2009-12-02T09:00:00Z,26.2168,-96.4998,1006.72,11111222 
TABS,ioos:station:wmo:42045:1,2009-12-02T09:30:00Z,26.2168,-96.4998,1006.86,11111222 
TABS,ioos:station:wmo:42045:1,2009-12-02T10:00:00Z,26.2168,-96.4998,1006.95,11111222 
TABS,ioos:station:wmo:42045:1,2009-12-02T10:30:00Z,26.2168,-96.4998,1007.06,11111222 
TABS,ioos:station:wmo:42045:1,2009-12-02T11:00:00Z,26.2168,-96.4998,1007.18,11111222 
TABS,ioos:station:wmo:42045:1,2009-12-02T11:30:00Z,26.2168,-96.4998,1007.43,11111222 
TABS,ioos:station:wmo:42045:1,2009-12-02T12:00:00Z,26.2168,-96.4998,1007.52,11111222 
TABS,ioos:station:wmo:42045:1,2009-12-02T12:30:00Z,26.2168,-96.4998,1008.17,11111222 
TABS,ioos:station:wmo:42045:1,2009-12-02T13:00:00Z,26.2168,-96.4998,1008.8,11111222 
TABS,ioos:station:wmo:42045:1,2009-12-02T13:30:00Z,26.2168,-96.4998,1008.92,11111222 
TABS,ioos:station:wmo:42045:1,2009-12-02T14:00:00Z,26.2168,-96.4998,1009.42,11111222 
TABS,ioos:station:wmo:42045:1,2009-12-02T14:30:00Z,26.2168,-96.4998,1009.78,11111222 
TABS,ioos:station:wmo:42045:1,2009-12-02T15:00:00Z,26.2168,-96.4998,1009.94,11111222 
TABS,ioos:station:wmo:42045:1,2009-12-02T15:30:00Z,26.2168,-96.4998,1010.09,11111222 
TABS,ioos:station:wmo:42045:1,2009-12-02T16:00:00Z,26.2168,-96.4998,1010.33,11111222 
TABS,ioos:station:wmo:42045:1,2009-12-02T16:30:00Z,26.2168,-96.4998,1010.58,11111222 
TABS,ioos:station:wmo:42045:1,2009-12-02T17:00:00Z,26.2168,-96.4998,1010.78,11111222 
TABS,ioos:station:wmo:42045:1,2009-12-02T17:30:00Z,26.2168,-96.4998,1010.62,11111222 
TABS,ioos:station:wmo:42045:1,2009-12-02T18:00:00Z,26.2168,-96.4998,1010.29,11111222 
TABS,ioos:station:wmo:42045:1,2009-12-02T18:30:00Z,26.2168,-96.4998,1010.01,11111222 
TABS,ioos:station:wmo:42045:1,2009-12-02T19:00:00Z,26.2168,-96.4998,1009.61,11111222 
TABS,ioos:station:wmo:42045:1,2009-12-02T19:30:00Z,26.2168,-96.4998,1009.74,11111222 
TABS,ioos:station:wmo:42045:1,2009-12-02T20:00:00Z,26.2168,-96.4998,1009.74,11111222 
TABS,ioos:station:wmo:42045:1,2009-12-02T20:30:00Z,26.2168,-96.4998,1009.96,11111222 
TABS,ioos:station:wmo:42045:1,2009-12-02T21:00:00Z,26.2168,-96.4998,1010.57,11111222 
TABS,ioos:station:wmo:42045:1,2009-12-02T21:30:00Z,26.2168,-96.4998,1011.13,11111222 
TABS,ioos:station:wmo:42045:1,2009-12-02T22:00:00Z,26.2168,-96.4998,1011.18,11111222 
TABS,ioos:station:wmo:42045:1,2009-12-02T22:30:00Z,26.2168,-96.4998,1011.52,11111222 
TABS,ioos:station:wmo:42045:1,2009-12-02T23:00:00Z,26.2168,-96.4998,1012.02,11111222 
TABS,ioos:station:wmo:42045:1,2009-12-02T23:30:00Z,26.2168,-96.4998,1012.36,11111222 
TABS,ioos:station:wmo:42045:1,2009-12-03T00:00:00Z,26.2168,-96.4998,1012.7,11111222 
TABS,ioos:station:wmo:42045:1,2009-12-03T00:30:00Z,26.2168,-96.4998,1013.25,11111222 
TABS,ioos:station:wmo:42045:1,2009-12-03T01:00:00Z,26.2168,-96.4998,1013.72,11111222 
TABS,ioos:station:wmo:42045:1,2009-12-03T01:30:00Z,26.2168,-96.4998,1014.08,11111222 
TABS,ioos:station:wmo:42045:1,2009-12-03T02:00:00Z,26.2168,-96.4998,1014.5,11111222 
TABS,ioos:station:wmo:42045:1,2009-12-03T02:30:00Z,26.2168,-96.4998,1014.48,11111222 
TABS,ioos:station:wmo:42045:1,2009-12-03T03:00:00Z,26.2168,-96.4998,1014.91,11111222 
TABS,ioos:station:wmo:42045:1,2009-12-03T03:30:00Z,26.2168,-96.4998,1015.31,11111222 
TABS,ioos:station:wmo:42045:1,2009-12-03T04:00:00Z,26.2168,-96.4998,1015.33,11111222 
TABS,ioos:station:wmo:42045:1,2009-12-03T04:30:00Z,26.2168,-96.4998,1015.26,11111222 
TABS,ioos:station:wmo:42045:1,2009-12-03T05:00:00Z,26.2168,-96.4998,1015.65,11111222 
TABS,ioos:station:wmo:42045:1,2009-12-03T05:30:00Z,26.2168,-96.4998,1015.53,11111222 
TABS,ioos:station:wmo:42045:1,2009-12-03T06:00:00Z,26.2168,-96.4998,1015.96,11111222 
TABS,ioos:station:wmo:42045:1,2009-12-03T06:30:00Z,26.2168,-96.4998,1016.26,11111222 
TABS,ioos:station:wmo:42045:1,2009-12-03T07:00:00Z,26.2168,-96.4998,1016.59,11111222 
TABS,ioos:station:wmo:42045:1,2009-12-03T07:30:00Z,26.2168,-96.4998,1016.73,11111222 
TABS,ioos:station:wmo:42045:1,2009-12-03T08:00:00Z,26.2168,-96.4998,1017.0,11111222 
TABS,ioos:station:wmo:42045:1,2009-12-03T08:30:00Z,26.2168,-96.4998,1017.14,11111222 
TABS,ioos:station:wmo:42045:1,2009-12-03T09:00:00Z,26.2168,-96.4998,1017.24,11111222 
TABS,ioos:station:wmo:42045:1,2009-12-03T09:30:00Z,26.2168,-96.4998,1017.41,11111222 
TABS,ioos:station:wmo:42045:1,2009-12-03T10:00:00Z,26.2168,-96.4998,1017.46,11111222 
TABS,ioos:station:wmo:42045:1,2009-12-03T10:30:00Z,26.2168,-96.4998,1017.75,11111222 
TABS,ioos:station:wmo:42045:1,2009-12-03T11:00:00Z,26.2168,-96.4998,1017.7,11111222 
TABS,ioos:station:wmo:42045:1,2009-12-03T11:30:00Z,26.2168,-96.4998,1017.83,11111222 
TABS,ioos:station:wmo:42045:1,2009-12-03T12:00:00Z,26.2168,-96.4998,1017.96,11111222 
TABS,ioos:station:wmo:42045:1,2009-12-03T12:30:00Z,26.2168,-96.4998,1018.54,11111222 
TABS,ioos:station:wmo:42045:1,2009-12-03T13:00:00Z,26.2168,-96.4998,1018.55,11111222 
TABS,ioos:station:wmo:42045:1,2009-12-03T13:30:00Z,26.2168,-96.4998,1018.87,11111222 
TABS,ioos:station:wmo:42045:1,2009-12-03T14:00:00Z,26.2168,-96.4998,1018.95,11111222 
TABS,ioos:station:wmo:42045:1,2009-12-03T14:30:00Z,26.2168,-96.4998,1018.81,11111222 
TABS,ioos:station:wmo:42045:1,2009-12-03T15:00:00Z,26.2168,-96.4998,1019.67,11111222 
TABS,ioos:station:wmo:42045:1,2009-12-03T15:30:00Z,26.2168,-96.4998,1020.01,11111222 
TABS,ioos:station:wmo:42045:1,2009-12-03T16:00:00Z,26.2168,-96.4998,1020.14,11111222 
TABS,ioos:station:wmo:42045:1,2009-12-03T16:30:00Z,26.2168,-96.4998,1020.3,11111222 
TABS,ioos:station:wmo:42045:1,2009-12-03T17:00:00Z,26.2168,-96.4998,1020.03,11111222 
TABS,ioos:station:wmo:42045:1,2009-12-03T17:30:00Z,26.2168,-96.4998,1019.65,11111222 
TABS,ioos:station:wmo:42045:1,2009-12-03T18:00:00Z,26.2168,-96.4998,1019.3,11111222 
TABS,ioos:station:wmo:42045:1,2009-12-03T18:30:00Z,26.2168,-96.4998,1018.83,11111222 
TABS,ioos:station:wmo:42045:1,2009-12-03T19:00:00Z,26.2168,-96.4998,1018.38,11111222 
TABS,ioos:station:wmo:42045:1,2009-12-03T19:30:00Z,26.2168,-96.4998,1018.16,11111222 
TABS,ioos:station:wmo:42045:1,2009-12-03T20:00:00Z,26.2168,-96.4998,1017.99,11111222 
TABS,ioos:station:wmo:42045:1,2009-12-03T20:30:00Z,26.2168,-96.4998,1018.03,11111222 
TABS,ioos:station:wmo:42045:1,2009-12-03T21:00:00Z,26.2168,-96.4998,1017.97,11111222 
TABS,ioos:station:wmo:42045:1,2009-12-03T21:30:00Z,26.2168,-96.4998,1018.06,11111222 
TABS,ioos:station:wmo:42045:1,2009-12-03T22:00:00Z,26.2168,-96.4998,1018.25,11111222 
TABS,ioos:station:wmo:42045:1,2009-12-03T22:30:00Z,26.2168,-96.4998,1018.33,11111222 
TABS,ioos:station:wmo:42045:1,2009-12-03T23:00:00Z,26.2168,-96.4998,1018.39,11111222 
TABS,ioos:station:wmo:42045:1,2009-12-03T23:30:00Z,26.2168,-96.4998,1018.48,11111222 
TABS,ioos:station:wmo:42045:1,2009-12-04T00:00:00Z,26.2168,-96.4998,1018.94,11111222 
TABS,ioos:station:wmo:42045:1,2009-12-04T00:30:00Z,26.2168,-96.4998,1019.25,11111222 
TABS,ioos:station:wmo:42045:1,2009-12-04T01:00:00Z,26.2168,-96.4998,1019.51,11111222 
TABS,ioos:station:wmo:42045:1,2009-12-04T01:30:00Z,26.2168,-96.4998,1019.39,11111222 
TABS,ioos:station:wmo:42045:1,2009-12-04T02:00:00Z,26.2168,-96.4998,1019.6,11111222 
TABS,ioos:station:wmo:42045:1,2009-12-04T02:30:00Z,26.2168,-96.4998,1019.75,11111222 
TABS,ioos:station:wmo:42045:1,2009-12-04T03:00:00Z,26.2168,-96.4998,1019.67,11111222 
TABS,ioos:station:wmo:42045:1,2009-12-04T03:30:00Z,26.2168,-96.4998,1019.66,11111222 
TABS,ioos:station:wmo:42045:1,2009-12-04T04:00:00Z,26.2168,-96.4998,1019.47,11111222 
TABS,ioos:station:wmo:42045:1,2009-12-04T04:30:00Z,26.2168,-96.4998,1019.08,11111222 
TABS,ioos:station:wmo:42045:1,2009-12-04T05:00:00Z,26.2168,-96.4998,1018.72,11111222 
TABS,ioos:station:wmo:42045:1,2009-12-04T05:30:00Z,26.2168,-96.4998,1018.19,11111222 
TABS,ioos:station:wmo:42045:1,2009-12-04T06:00:00Z,26.2168,-96.4998,1017.78,11111222 
TABS,ioos:station:wmo:42045:1,2009-12-04T06:30:00Z,26.2168,-96.4998,1017.43,11111222 
TABS,ioos:station:wmo:42045:1,2009-12-04T07:00:00Z,26.2168,-96.4998,1017.51,11111222 
TABS,ioos:station:wmo:42045:1,2009-12-04T07:30:00Z,26.2168,-96.4998,1017.07,11111222 
TABS,ioos:station:wmo:42045:1,2009-12-04T08:00:00Z,26.2168,-96.4998,1017.28,11111222 
TABS,ioos:station:wmo:42045:1,2009-12-04T08:30:00Z,26.2168,-96.4998,1016.95,11111222 
TABS,ioos:station:wmo:42045:1,2009-12-04T09:00:00Z,26.2168,-96.4998,1016.74,11111222 
TABS,ioos:station:wmo:42045:1,2009-12-04T09:30:00Z,26.2168,-96.4998,1016.62,11111222 
TABS,ioos:station:wmo:42045:1,2009-12-04T10:00:00Z,26.2168,-96.4998,1016.43,11111222 
TABS,ioos:station:wmo:42045:1,2009-12-04T10:30:00Z,26.2168,-96.4998,1016.27,11111222 
TABS,ioos:station:wmo:42045:1,2009-12-04T11:00:00Z,26.2168,-96.4998,1015.94,11111222 
TABS,ioos:station:wmo:42045:1,2009-12-04T11:30:00Z,26.2168,-96.4998,1016.25,11111222 
TABS,ioos:station:wmo:42045:1,2009-12-04T12:00:00Z,26.2168,-96.4998,1016.71,11111222 
TABS,ioos:station:wmo:42045:1,2009-12-04T12:30:00Z,26.2168,-96.4998,1016.81,11111222 
TABS,ioos:station:wmo:42045:1,2009-12-04T13:00:00Z,26.2168,-96.4998,1016.97,11111222 
TABS,ioos:station:wmo:42045:1,2009-12-04T13:30:00Z,26.2168,-96.4998,1017.39,11111222 
TABS,ioos:station:wmo:42045:1,2009-12-04T14:00:00Z,26.2168,-96.4998,1016.95,11111222 
TABS,ioos:station:wmo:42045:1,2009-12-04T14:30:00Z,26.2168,-96.4998,1017.08,11111222 
TABS,ioos:station:wmo:42045:1,2009-12-04T15:00:00Z,26.2168,-96.4998,1018.01,11111222 
TABS,ioos:station:wmo:42045:1,2009-12-04T15:30:00Z,26.2168,-96.4998,1018.12,11111222 
TABS,ioos:station:wmo:42045:1,2009-12-04T16:00:00Z,26.2168,-96.4998,1018.06,11111222 
TABS,ioos:station:wmo:42045:1,2009-12-04T16:30:00Z,26.2168,-96.4998,1018.21,11111222 
TABS,ioos:station:wmo:42045:1,2009-12-04T17:00:00Z,26.2168,-96.4998,1018.18,11111222 
TABS,ioos:station:wmo:42045:1,2009-12-04T17:30:00Z,26.2168,-96.4998,1018.34,11111222 
TABS,ioos:station:wmo:42045:1,2009-12-04T18:00:00Z,26.2168,-96.4998,1019.09,11111222 
TABS,ioos:station:wmo:42045:1,2009-12-04T18:30:00Z,26.2168,-96.4998,1019.06,11111222 
TABS,ioos:station:wmo:42045:1,2009-12-04T19:00:00Z,26.2168,-96.4998,1018.77,11111222 
TABS,ioos:station:wmo:42045:1,2009-12-04T19:30:00Z,26.2168,-96.4998,1019.36,11111222 
TABS,ioos:station:wmo:42045:1,2009-12-04T20:00:00Z,26.2168,-96.4998,1019.67,11111222 
TABS,ioos:station:wmo:42045:1,2009-12-04T20:30:00Z,26.2168,-96.4998,1020.17,11111222 
TABS,ioos:station:wmo:42045:1,2009-12-04T21:00:00Z,26.2168,-96.4998,1019.6,11111222 
TABS,ioos:station:wmo:42045:1,2009-12-04T21:30:00Z,26.2168,-96.4998,1020.69,11111222 
TABS,ioos:station:wmo:42045:1,2009-12-04T22:00:00Z,26.2168,-96.4998,1020.7,11111222 
TABS,ioos:station:wmo:42045:1,2009-12-04T22:30:00Z,26.2168,-96.4998,1020.95,11111222 
TABS,ioos:station:wmo:42045:1,2009-12-04T23:00:00Z,26.2168,-96.4998,1021.71,11111222 
TABS,ioos:station:wmo:42045:1,2009-12-04T23:30:00Z,26.2168,-96.4998,1022.16,11111222 
TABS,ioos:station:wmo:42045:1,2009-12-05T00:00:00Z,26.2168,-96.4998,1022.6,11111222 
TABS,ioos:station:wmo:42045:1,2009-12-05T00:30:00Z,26.2168,-96.4998,1023.05,11111222 
TABS,ioos:station:wmo:42045:1,2009-12-05T01:00:00Z,26.2168,-96.4998,1023.42,11111222 
TABS,ioos:station:wmo:42045:1,2009-12-05T01:30:00Z,26.2168,-96.4998,1023.73,11111222 
TABS,ioos:station:wmo:42045:1,2009-12-05T02:00:00Z,26.2168,-96.4998,1024.03,11111222 
TABS,ioos:station:wmo:42045:1,2009-12-05T02:30:00Z,26.2168,-96.4998,1024.08,11111222 
TABS,ioos:station:wmo:42045:1,2009-12-05T03:00:00Z,26.2168,-96.4998,1024.95,11111222 
TABS,ioos:station:wmo:42045:1,2009-12-05T03:30:00Z,26.2168,-96.4998,1025.27,11111222 
TABS,ioos:station:wmo:42045:1,2009-12-05T04:00:00Z,26.2168,-96.4998,1025.16,11111222 
TABS,ioos:station:wmo:42045:1,2009-12-05T04:30:00Z,26.2168,-96.4998,1024.97,11111222 
TABS,ioos:station:wmo:42045:1,2009-12-05T05:00:00Z,26.2168,-96.4998,1025.02,11111222 
TABS,ioos:station:wmo:42045:1,2009-12-05T05:30:00Z,26.2168,-96.4998,1024.83,11111222 
TABS,ioos:station:wmo:42045:1,2009-12-05T06:00:00Z,26.2168,-96.4998,1024.81,11111222 
TABS,ioos:station:wmo:42045:1,2009-12-05T06:30:00Z,26.2168,-96.4998,1024.55,11111222 
TABS,ioos:station:wmo:42045:1,2009-12-05T07:00:00Z,26.2168,-96.4998,1024.62,11111222 
TABS,ioos:station:wmo:42045:1,2009-12-05T07:30:00Z,26.2168,-96.4998,1024.75,11111222 
TABS,ioos:station:wmo:42045:1,2009-12-05T08:00:00Z,26.2168,-96.4998,1024.81,11111222 
TABS,ioos:station:wmo:42045:1,2009-12-05T08:30:00Z,26.2168,-96.4998,1024.39,11111222 
TABS,ioos:station:wmo:42045:1,2009-12-05T09:00:00Z,26.2168,-96.4998,1024.0,11111222 
TABS,ioos:station:wmo:42045:1,2009-12-05T09:30:00Z,26.2168,-96.4998,1024.26,11111222 
TABS,ioos:station:wmo:42045:1,2009-12-05T10:00:00Z,26.2168,-96.4998,1023.97,11111222 
TABS,ioos:station:wmo:42045:1,2009-12-05T10:30:00Z,26.2168,-96.4998,1023.97,11111222 
TABS,ioos:station:wmo:42045:1,2009-12-05T11:00:00Z,26.2168,-96.4998,1024.25,11111222 
TABS,ioos:station:wmo:42045:1,2009-12-05T11:30:00Z,26.2168,-96.4998,1024.04,11111222 
TABS,ioos:station:wmo:42045:1,2009-12-05T12:00:00Z,26.2168,-96.4998,1024.45,11111222 
TABS,ioos:station:wmo:42045:1,2009-12-05T12:30:00Z,26.2168,-96.4998,1024.59,11111222 
TABS,ioos:station:wmo:42045:1,2009-12-05T13:00:00Z,26.2168,-96.4998,1024.46,11111222 
TABS,ioos:station:wmo:42045:1,2009-12-05T13:30:00Z,26.2168,-96.4998,1024.48,11111222 
TABS,ioos:station:wmo:42045:1,2009-12-05T14:00:00Z,26.2168,-96.4998,1024.68,11111222 
TABS,ioos:station:wmo:42045:1,2009-12-05T14:30:00Z,26.2168,-96.4998,1024.89,11111222 
TABS,ioos:station:wmo:42045:1,2009-12-05T15:00:00Z,26.2168,-96.4998,1025.08,11111222 
TABS,ioos:station:wmo:42045:1,2009-12-05T15:30:00Z,26.2168,-96.4998,1025.02,11111222 
TABS,ioos:station:wmo:42045:1,2009-12-05T16:00:00Z,26.2168,-96.4998,1025.23,11111222 
TABS,ioos:station:wmo:42045:1,2009-12-05T16:30:00Z,26.2168,-96.4998,1024.76,11111222 
TABS,ioos:station:wmo:42045:1,2009-12-05T17:00:00Z,26.2168,-96.4998,1024.38,11111222 
TABS,ioos:station:wmo:42045:1,2009-12-05T17:30:00Z,26.2168,-96.4998,1024.06,11111222 
TABS,ioos:station:wmo:42045:1,2009-12-05T18:00:00Z,26.2168,-96.4998,1023.4,11111222 
TABS,ioos:station:wmo:42045:1,2009-12-05T18:30:00Z,26.2168,-96.4998,1022.62,11111222 
TABS,ioos:station:wmo:42045:1,2009-12-05T19:00:00Z,26.2168,-96.4998,1021.96,11111222 
TABS,ioos:station:wmo:42045:1,2009-12-05T19:30:00Z,26.2168,-96.4998,1021.55,11111222 
TABS,ioos:station:wmo:42045:1,2009-12-05T20:00:00Z,26.2168,-96.4998,1021.13,11111222 
TABS,ioos:station:wmo:42045:1,2009-12-05T20:30:00Z,26.2168,-96.4998,1020.58,11111222 
TABS,ioos:station:wmo:42045:1,2009-12-05T21:00:00Z,26.2168,-96.4998,1020.51,11111222 
TABS,ioos:station:wmo:42045:1,2009-12-05T21:30:00Z,26.2168,-96.4998,1020.28,11111222 
TABS,ioos:station:wmo:42045:1,2009-12-05T22:00:00Z,26.2168,-96.4998,1020.01,11111222 
TABS,ioos:station:wmo:42045:1,2009-12-05T22:30:00Z,26.2168,-96.4998,1019.67,11111222 
TABS,ioos:station:wmo:42045:1,2009-12-06T00:00:00Z,26.2168,-96.4998,1019.06,11111222 
TABS,ioos:station:wmo:42045:1,2009-12-06T00:30:00Z,26.2168,-96.4998,1018.98,11111222 
TABS,ioos:station:wmo:42045:1,2009-12-06T01:00:00Z,26.2168,-96.4998,1018.93,11111222 
TABS,ioos:station:wmo:42045:1,2009-12-06T01:30:00Z,26.2168,-96.4998,1018.67,11111222 
TABS,ioos:station:wmo:42045:1,2009-12-06T02:00:00Z,26.2168,-96.4998,1018.7,11111222 
TABS,ioos:station:wmo:42045:1,2009-12-06T02:30:00Z,26.2168,-96.4998,1019.11,11111222 
TABS,ioos:station:wmo:42045:1,2009-12-06T03:00:00Z,26.2168,-96.4998,1018.62,11111222 
TABS,ioos:station:wmo:42045:1,2009-12-06T03:30:00Z,26.2168,-96.4998,1018.7,11111222 
TABS,ioos:station:wmo:42045:1,2009-12-06T04:00:00Z,26.2168,-96.4998,1018.54,11111222 
TABS,ioos:station:wmo:42045:1,2009-12-06T04:30:00Z,26.2168,-96.4998,1018.2,11111222 
TABS,ioos:station:wmo:42045:1,2009-12-06T05:00:00Z,26.2168,-96.4998,1017.78,11111222 
TABS,ioos:station:wmo:42045:1,2009-12-06T05:30:00Z,26.2168,-96.4998,1016.84,11111222 
TABS,ioos:station:wmo:42045:1,2009-12-06T06:00:00Z,26.2168,-96.4998,1016.86,11111222 
TABS,ioos:station:wmo:42045:1,2009-12-06T06:30:00Z,26.2168,-96.4998,1016.63,11111222 
TABS,ioos:station:wmo:42045:1,2009-12-06T07:00:00Z,26.2168,-96.4998,1016.08,11111222 
TABS,ioos:station:wmo:42045:1,2009-12-06T07:30:00Z,26.2168,-96.4998,1015.7,11111222 
TABS,ioos:station:wmo:42045:1,2009-12-06T08:00:00Z,26.2168,-96.4998,1015.14,11111222 
TABS,ioos:station:wmo:42045:1,2009-12-06T08:30:00Z,26.2168,-96.4998,1015.26,11111222 
TABS,ioos:station:wmo:42045:1,2009-12-06T09:00:00Z,26.2168,-96.4998,1014.66,11111222 
TABS,ioos:station:wmo:42045:1,2009-12-06T09:30:00Z,26.2168,-96.4998,1014.94,11111222 
TABS,ioos:station:wmo:42045:1,2009-12-06T10:00:00Z,26.2168,-96.4998,1014.46,11111222 
TABS,ioos:station:wmo:42045:1,2009-12-06T10:30:00Z,26.2168,-96.4998,1014.75,11111222 
TABS,ioos:station:wmo:42045:1,2009-12-06T11:00:00Z,26.2168,-96.4998,1015.27,11111222 
TABS,ioos:station:wmo:42045:1,2009-12-06T11:30:00Z,26.2168,-96.4998,1013.8,11111222 
TABS,ioos:station:wmo:42045:1,2009-12-06T12:00:00Z,26.2168,-96.4998,1013.38,11111222 
TABS,ioos:station:wmo:42045:1,2009-12-06T12:30:00Z,26.2168,-96.4998,1013.36,11111222 
TABS,ioos:station:wmo:42045:1,2009-12-06T13:00:00Z,26.2168,-96.4998,1012.63,11111222 
TABS,ioos:station:wmo:42045:1,2009-12-06T13:30:00Z,26.2168,-96.4998,1013.07,11111222 
TABS,ioos:station:wmo:42045:1,2009-12-06T14:00:00Z,26.2168,-96.4998,1013.84,11111222 
TABS,ioos:station:wmo:42045:1,2009-12-06T14:30:00Z,26.2168,-96.4998,1014.02,11111222 
TABS,ioos:station:wmo:42045:1,2009-12-06T15:00:00Z,26.2168,-96.4998,1013.89,11111222 
TABS,ioos:station:wmo:42045:1,2009-12-06T15:30:00Z,26.2168,-96.4998,1014.45,11111222 
TABS,ioos:station:wmo:42045:1,2009-12-06T16:00:00Z,26.2168,-96.4998,1014.74,11111222 
TABS,ioos:station:wmo:42045:1,2009-12-06T16:30:00Z,26.2168,-96.4998,1014.48,11111222 
TABS,ioos:station:wmo:42045:1,2009-12-06T17:00:00Z,26.2168,-96.4998,1014.27,11111222 
TABS,ioos:station:wmo:42045:1,2009-12-06T17:30:00Z,26.2168,-96.4998,1013.33,11111222 
TABS,ioos:station:wmo:42045:1,2009-12-06T18:00:00Z,26.2168,-96.4998,1012.98,11111222 
TABS,ioos:station:wmo:42045:1,2009-12-06T18:30:00Z,26.2168,-96.4998,1012.51,11111222 
TABS,ioos:station:wmo:42045:1,2009-12-06T19:00:00Z,26.2168,-96.4998,1011.78,11111222 
TABS,ioos:station:wmo:42045:1,2009-12-06T19:30:00Z,26.2168,-96.4998,1011.34,11111222 